Location: Arrecife
(10.5858°N, 67.0742°W)
Time: 22:03:05
(UTC+00:00)

Hubble Space Telescope - Pass Details

Date: 06 December 2022
Orbit: 529 x 532 km, 28.5° (Epoch: 06 February)

Event Time Altitude Azimuth Distance (km) Brightness Sun altitude
Exits shadow 08:36:51 18° 46° (NE) 1,335 3.0 -27.6°
Drops below altitude 10° 08:37:59 10° 51° (NE) 1,759 3.7 -27.3°
Sets 08:40:17 0° 56° (NE) 2,647 4.8 -26.8°
